SCP
0 0 0 0 0 0 0 0 0 0 0 0 0 0 0 0 0 0 0 0 0 0 -0 -0 -0 -0 -0 -0 -0 -0 -0 -0
0 0 0 0 0 0 0 0 0 0 0 0 0 -0 -0 0 0 0 0 0 0 0 0 -0 -0 -0 -0 -0 -0 -0 -0 -0
0 0 0 0 0 0 0 0 0 0 0 0 0 0 0 0 0 0 1 1 1 1 0 0 0 0 0 0 0 -0 -0 0
0 0 0 0 0 0 0 0 0 0 0 0 0 0 0 0 0 0 1 1 1 1 1 1 0 0 0 0 0 0 0 0
0 0 0 0 0 0 0 0 0 0 0 0 -0 0 0 0 0 0 1 1 1 1 1 1 1 0 0 0 0 0 0 0
0 0 0 0 0 0 0 0 0 0 0 0 -0 0 0 0 0 0 0 1 1 1 1 1 1 1 1 0 0 0 0 0
0 0 0 0 0 0 0 0 0 0 0 0 0 0 1 1 0 0 0 0 1 1 1 1 1 1 1 0 0 0 0 0
0 0 -0 -0 0 0 0 0 0 0 0 0 0 1 1 1 1 0 0 0 1 1 1 1 1 1 1 1 1 1 1 1
0 0 -0 -0 0 0 0 0 0 0 0 0 0 0 1 1 1 0 1 0 0 1 1 1 1 2 1 1 1 1 1 1
0 0 0 0 0 0 0 0 0 0 0 0 0 0 0 0 1 1 1 1 1 1 1 1 1 2 1 1 1 1 1 1
0 0 0 0 0 0 0 0 0 0 0 0 0 0 0 0 0 1 2 1 1 1 1 1 1 1 1 1 1 1 1 1
0 0 0 0 0 0 0 0 0 0 0 0 0 0 0 0 0 0 1 1 1 0 0 0 0 1 1 1 1 1 1 1
0 0 0 0 0 0 0 0 0 0 0 0 0 0 0 0 0 0 0 0 1 0 0 0 0 0 0 1 1 1 1 1
0 0 0 0 0 0 0 0 0 0 0 0 0 0 0 0 0 0 1 1 0 1 0 0 0 0 1 0 0 1 1 1
0 0 0 0 0 0 0 0 0 0 0 0 0 0 0 0 0 0 0 1 1 0 0 0 1 1 1 1 0 0 0 0
0 0 0 0 0 0 0 -0 0 0 0 0 0 0 0 0 0 0 0 0 0 0 0 0 0 0 1 2 2 1 0 0
0 0 0 0 0 0 0 -0 0 0 0 0 0 0 0 0 0 0 0 0 0 0 0 0 0 0 1 2 2 2 2 1
0 0 0 0 0 0 0 0 0 0 0 0 0 0 0 0 0 0 0 0 0 0 0 0 0 2 2 2 2 3 2 2
0 0 0 0 0 0 0 0 0 0 0 0 0 0 0 0 0 0 0 0 0 0 0 0 0 0 0 0 0 0 0 0
0 0 0 0 0 0 0 0 0 0 0 0 0 0 0 0 0 0 0 0 0 0 0 0 0 0 0 0 0 0 0 0
Wind_Speed_500mb
7 6 9 10 6 11 21 61 20 13 11 5 3 22 48 34 36 59 55 55 56 55 52 48 45 42 40 41 42 41 41 43
7 12 13 8 15 15 24 46 4 21 11 12 3 26 25 34 42 56 52 54 55 54 53 48 46 42 39 39 41 41 40 40
3 12 9 10 20 23 16 17 1 24 7 6 21 9 26 31 40 47 52 54 55 55 54 50 48 44 40 38 40 41 39 37
7 12 8 12 27 21 13 26 17 19 16 5 23 22 32 27 29 38 45 52 53 54 53 50 48 46 43 40 38 39 38 37
9 9 10 7 19 14 14 20 9 43 10 12 31 34 32 30 26 34 42 44 50 54 53 50 47 47 45 43 41 39 38 37
10 10 14 9 17 23 28 16 13 45 13 15 43 41 37 37 36 36 40 41 44 49 52 53 51 48 46 45 43 40 36 34
12 13 9 13 16 30 26 5 5 7 30 43 44 45 44 42 42 40 39 42 48 51 52 53 52 50 49 48 47 45 42 40
11 6 9 14 12 26 14 19 13 24 36 39 41 52 49 48 48 48 46 45 48 49 52 53 53 53 53 54 55 53 52 48
16 24 19 13 24 20 17 7 4 4 12 29 32 45 55 53 50 40 49 51 49 49 52 55 55 55 55 55 55 56 55 54
18 35 20 12 33 13 18 17 13 9 10 9 19 24 31 38 47 53 53 54 55 51 49 57 55 55 52 52 51 53 57 56
39 40 35 41 26 27 35 37 22 20 19 19 17 15 20 25 23 29 58 61 61 54 48 56 61 55 52 52 51 48 48 52
35 42 34 11 33 15 37 38 32 27 28 25 29 30 27 25 21 22 21 37 62 60 54 58 57 51 48 48 50 45 45 46
12 31 16 25 15 14 51 36 36 36 39 42 37 36 37 32 31 28 28 27 32 54 59 53 51 43 44 42 43 42 40 37
10 4 14 21 15 13 30 36 45 48 47 46 45 43 41 40 36 32 27 39 41 46 61 60 56 43 38 39 42 43 44 40
12 6 3 7 11 16 35 43 50 59 58 54 54 53 53 45 42 43 40 35 48 48 54 52 50 43 43 40 42 43 41 42
9 6 5 13 17 18 36 35 49 63 60 59 57 67 55 54 48 47 35 36 49 51 52 53 52 43 44 47 51 45 43 43
11 7 4 15 13 17 31 25 34 44 48 53 54 44 38 52 50 45 36 41 50 54 56 55 55 50 48 49 45 45 44 43
17 13 13 15 17 18 11 12 20 29 33 45 46 38 44 52 52 51 47 48 51 53 59 59 54 48 45 39 42 46 51 51
16 11 4 5 12 10 11 13 23 18 21 31 34 40 48 56 60 55 51 57 59 55 53 60 54 49 47 43 43 43 42 44
16 5 8 5 10 10 9 16 11 34 44 51 49 43 49 56 71 71 62 61 61 65 66 55 47 44 43 40 34 28 28 31
Wind_Direction_500mb
95 123 188 233 258 279 293 315 268 158 92 50 100 137 145 160 172 171 173 170 171 171 172 174 173 173 173 174 175 172 169 168
99 228 257 235 290 306 321 323 101 90 71 98 307 138 157 162 164 169 175 173 173 175 175 178 178 177 175 174 174 174 174 174
146 255 259 275 297 313 301 285 116 129 119 95 167 175 151 154 164 173 176 175 177 179 179 182 182 183 181 179 179 179 180 182
232 253 255 289 287 312 308 339 93 108 111 184 167 177 157 148 159 181 181 177 180 182 184 187 187 188 189 188 186 186 188 189
201 268 283 241 313 308 297 285 249 143 106 157 161 168 160 149 149 175 184 184 185 186 188 192 194 196 196 197 197 196 197 198
217 207 268 186 329 331 317 305 129 140 170 186 172 172 167 167 163 170 185 193 194 194 194 196 198 202 204 206 207 208 208 208
209 179 244 328 17 346 323 305 279 255 168 169 173 180 178 176 174 178 188 197 199 199 200 200 202 205 209 212 214 215 217 218
202 213 270 310 326 326 327 355 18 103 111 148 173 190 194 190 188 190 195 199 202 205 207 205 206 208 212 214 216 218 220 222
257 268 294 273 298 326 306 316 212 98 96 122 165 191 203 207 206 212 207 204 206 207 211 212 212 212 215 218 220 223 225 226
263 263 275 265 290 300 280 269 250 208 247 264 154 152 180 212 219 217 222 221 215 209 214 216 218 219 222 224 226 229 231 232
260 265 272 278 268 262 280 260 234 247 255 231 231 215 189 186 185 219 234 238 232 219 218 218 220 222 226 229 233 235 236 238
271 274 277 235 267 226 265 268 244 244 255 262 257 253 252 233 233 211 217 238 241 229 220 218 221 223 229 234 238 239 242 244
250 267 244 249 275 207 260 255 251 252 250 254 259 258 258 264 263 263 226 214 226 234 224 216 223 226 234 237 236 236 244 250
280 232 264 168 250 262 260 264 263 263 265 264 262 261 265 259 271 265 234 219 215 220 221 220 219 227 236 243 239 250 254 256
300 224 258 216 285 262 288 294 268 269 267 269 270 271 263 250 256 261 265 227 205 209 215 225 232 238 248 257 257 259 262 271
217 273 355 312 276 284 292 318 266 260 264 265 271 272 266 252 249 251 255 212 201 198 208 220 224 235 247 261 264 263 272 278
262 247 276 258 248 279 294 336 293 260 257 264 260 268 250 237 237 242 240 202 196 195 197 201 211 223 233 247 247 256 273 270
290 262 157 273 258 259 277 292 281 258 257 248 251 246 228 230 239 245 242 223 205 202 198 204 210 220 232 236 241 253 259 266
223 304 243 301 309 295 294 305 325 318 276 267 272 262 244 246 245 238 231 224 217 216 210 206 208 214 221 225 233 242 255 265
235 178 245 88 276 298 300 316 307 314 317 311 302 291 281 270 256 244 231 225 217 208 201 202 203 209 217 218 222 230 245 262
Wind_Speed_850mb
7 6 9 10 6 11 21 61 20 13 11 5 3 22 48 34 36 59 55 55 56 55 52 48 45 42 40 41 42 41 41 43
7 12 13 8 15 15 24 46 4 21 11 12 3 26 25 34 42 56 52 54 55 54 53 48 46 42 39 39 41 41 40 40
3 12 9 10 20 23 16 17 1 24 7 6 21 9 26 31 40 47 52 54 55 55 54 50 48 44 40 38 40 41 39 37
7 12 8 12 27 21 13 26 17 19 16 5 23 22 32 27 29 38 45 52 53 54 53 50 48 46 43 40 38 39 38 37
9 9 10 7 19 14 14 20 9 43 10 12 31 34 32 30 26 34 42 44 50 54 53 50 47 47 45 43 41 39 38 37
10 10 14 9 17 23 28 16 13 45 13 15 43 41 37 37 36 36 40 41 44 49 52 53 51 48 46 45 43 40 36 34
12 13 9 13 16 30 26 5 5 7 30 43 44 45 44 42 42 40 39 42 48 51 52 53 52 50 49 48 47 45 42 40
11 6 9 14 12 26 14 19 13 24 36 39 41 52 49 48 48 48 46 45 48 49 52 53 53 53 53 54 55 53 52 48
16 24 19 13 24 20 17 7 4 4 12 29 32 45 55 53 50 40 49 51 49 49 52 55 55 55 55 55 55 56 55 54
18 35 20 12 33 13 18 17 13 9 10 9 19 24 31 38 47 53 53 54 55 51 49 57 55 55 52 52 51 53 57 56
39 40 35 41 26 27 35 37 22 20 19 19 17 15 20 25 23 29 58 61 61 54 48 56 61 55 52 52 51 48 48 52
35 42 34 11 33 15 37 38 32 27 28 25 29 30 27 25 21 22 21 37 62 60 54 58 57 51 48 48 50 45 45 46
12 31 16 25 15 14 51 36 36 36 39 42 37 36 37 32 31 28 28 27 32 54 59 53 51 43 44 42 43 42 40 37
10 4 14 21 15 13 30 36 45 48 47 46 45 43 41 40 36 32 27 39 41 46 61 60 56 43 38 39 42 43 44 40
12 6 3 7 11 16 35 43 50 59 58 54 54 53 53 45 42 43 40 35 48 48 54 52 50 43 43 40 42 43 41 42
9 6 5 13 17 18 36 35 49 63 60 59 57 67 55 54 48 47 35 36 49 51 52 53 52 43 44 47 51 45 43 43
11 7 4 15 13 17 31 25 34 44 48 53 54 44 38 52 50 45 36 41 50 54 56 55 55 50 48 49 45 45 44 43
17 13 13 15 17 18 11 12 20 29 33 45 46 38 44 52 52 51 47 48 51 53 59 59 54 48 45 39 42 46 51 51
16 11 4 5 12 10 11 13 23 18 21 31 34 40 48 56 60 55 51 57 59 55 53 60 54 49 47 43 43 43 42 44
16 5 8 5 10 10 9 16 11 34 44 51 49 43 49 56 71 71 62 61 61 65 66 55 47 44 43 40 34 28 28 31
Wind_Direction_850mb
95 123 188 233 258 279 293 315 268 158 92 50 100 137 145 160 172 171 173 170 171 171 172 174 173 173 173 174 175 172 169 168
99 228 257 235 290 306 321 323 101 90 71 98 307 138 157 162 164 169 175 173 173 175 175 178 178 177 175 174 174 174 174 174
146 255 259 275 297 313 301 285 116 129 119 95 167 175 151 154 164 173 176 175 177 179 179 182 182 183 181 179 179 179 180 182
232 253 255 289 287 312 308 339 93 108 111 184 167 177 157 148 159 181 181 177 180 182 184 187 187 188 189 188 186 186 188 189
201 268 283 241 313 308 297 285 249 143 106 157 161 168 160 149 149 175 184 184 185 186 188 192 194 196 196 197 197 196 197 198
217 207 268 186 329 331 317 305 129 140 170 186 172 172 167 167 163 170 185 193 194 194 194 196 198 202 204 206 207 208 208 208
209 179 244 328 17 346 323 305 279 255 168 169 173 180 178 176 174 178 188 197 199 199 200 200 202 205 209 212 214 215 217 218
202 213 270 310 326 326 327 355 18 103 111 148 173 190 194 190 188 190 195 199 202 205 207 205 206 208 212 214 216 218 220 222
257 268 294 273 298 326 306 316 212 98 96 122 165 191 203 207 206 212 207 204 206 207 211 212 212 212 215 218 220 223 225 226
263 263 275 265 290 300 280 269 250 208 247 264 154 152 180 212 219 217 222 221 215 209 214 216 218 219 222 224 226 229 231 232
260 265 272 278 268 262 280 260 234 247 255 231 231 215 189 186 185 219 234 238 232 219 218 218 220 222 226 229 233 235 236 238
271 274 277 235 267 226 265 268 244 244 255 262 257 253 252 233 233 211 217 238 241 229 220 218 221 223 229 234 238 239 242 244
250 267 244 249 275 207 260 255 251 252 250 254 259 258 258 264 263 263 226 214 226 234 224 216 223 226 234 237 236 236 244 250
280 232 264 168 250 262 260 264 263 263 265 264 262 261 265 259 271 265 234 219 215 220 221 220 219 227 236 243 239 250 254 256
300 224 258 216 285 262 288 294 268 269 267 269 270 271 263 250 256 261 265 227 205 209 215 225 232 238 248 257 257 259 262 271
217 273 355 312 276 284 292 318 266 260 264 265 271 272 266 252 249 251 255 212 201 198 208 220 224 235 247 261 264 263 272 278
262 247 276 258 248 279 294 336 293 260 257 264 260 268 250 237 237 242 240 202 196 195 197 201 211 223 233 247 247 256 273 270
290 262 157 273 258 259 277 292 281 258 257 248 251 246 228 230 239 245 242 223 205 202 198 204 210 220 232 236 241 253 259 266
223 304 243 301 309 295 294 305 325 318 276 267 272 262 244 246 245 238 231 224 217 216 210 206 208 214 221 225 233 242 255 265
235 178 245 88 276 298 300 316 307 314 317 311 302 291 281 270 256 244 231 225 217 208 201 202 203 209 217 218 222 230 245 262